THORAD DELTA 1 DEB, 42616

Orbit data source: Space-Track

THORAD DELTA 1 DEB, 42616 is space debris in LEO originally from a launch on Fri, 15 Nov 1974 UTC launched from the Air Force Western Test Range (AFWTR). Debris objects in space refer to the collection of defunct objects orbiting the Earth. Examples of debris include non-operational satellites, rocket bodies, and fragments generated from explosions, collisions, or faulty payload assembly.

Loading next visibility...
Identifier
42616, 1974-089GH
Orbit
LEO
Country
Flag of USUS
Related business
Manufacturer
Unknown
Mission
Spacecraft
Bus & Motor
Unknown
Mass
Unknown
Launch date (UTC)
1974-11-15 (51 years ago)
Launch vehicle
Unknown
Launch site
Air Force Western Test Range (AFWTR)
Object type
Payload
Rocket body
Debris
Shape & HBR
Unknown shape, 0.1 m
Radar Cross Section
Small (<0.1 m²)

Expand to show TLE details & history
Last TLE update: 12 hours ago

TLE from 12 hours ago
0 THORAD DELTA 1 DEB
1 42616U 74089GH  25349.66967888  .00000107  00000-0  20543-2 0  9992
2 42616 101.4191 307.4717 0498656  63.8637 117.5072 11.58980936869048
Epoch: 2025-12-15T16:04Z
TLE epoch observation values (Epoch: 2025-12-15T16:04:20.255Z)
Latitude
-6.29652°
Longitude
160.55118°
Altitude
2,078.985 km
Speed
6.78 km/s
True Right ascension
08h 24m 48s
True Declination
-6° 15' 54"
Sunlit
Object was in daylight at epoch
Visualization orbit readout
Latitude
Unknown
Longitude
Unknown
Altitude
Unknown
Speed
Unknown
Apparent Right ascension
Unknown
Apparent Declination
Unknown
Sunlit
N/A
Visualization observer readout
Local Sidereal Time
02:53:19
Azimuth
Unknown
Elevation
Unknown
Doppler factor
Unknown
Orbital elements
Apogee altitude
2,278.724 km
Perigee altitude
1,456.372 km
Semi-major axis
8,245.685 km
Eccentricity
0.04987
Inclination
101.4191°
RAAN
307.4717°
Arg. of periapsis
63.8637°
True anomaly
122.4274°
Mean anomaly
117.5072°
Eccentric anomaly
119.98196°
Mean motion
2.8987 °/min
Orbital period
124.19 mins
BSTAR
0.0020543
Loading maneuver chart data...
Computing Atmospheric mass density...

Documentation

Showing up to 5 results
|